Back to catalog

GEESAT 1-04

AliveCommunicationsLEO
NORAD 52788·PAYLOAD·🇨🇳 China

Launched Jun 2, 2022 from Xichang Satellite Launch Center

Loading…

Next Passes (next 24 hours)

TLE

FreshSource: Space-Track

Epoch: Sep 14, 2026, 21:09 UTC

1 52788U 22058D   26257.88189010  .00001287  00000-0  19011-3 0  9997
2 52788  50.0040 148.8251 0009355 130.3142 229.8614 14.81596609233229

Track GEESAT 1-04 in real time with AllMySat

Download on the App Store